Powrót do katalogu

Zorkiy-2M 5

AktywnyNaukaSSO
NORAD 67295·PAYLOAD·🇷🇺 Russia

Wystrzelony Dec 28, 2025 z Vostochny Cosmodrome

Loading…

Następne Przeloty (najbliższe 24 godziny)

TLE

ŚwieżeSource: Space-Track

Epoka: Sep 14, 2026, 15:26 UTC

1 67295U 25313AZ  26257.64327699  .00005501  00000-0  22138-3 0  9991
2 67295  97.3865 331.4307 0010909  39.1293 321.0732 15.25242001 39604

Śledź Zorkiy-2M 5 w czasie rzeczywistym z AllMySat

Download on the App Store